Location: Raleigh
(35.7720°N, 78.6390°W)
Time: 08:06:35
(UTC-04:00)

Amateur Radio Satellites - All Passes

Search period start: 27 September 2016 07:36
Search period end: 28 September 2016 07:36
Location: Raleigh, 35.7720°N, 78.6390°W

Satellite Date Start Highest point End Downlink Frequencies (MHz)
Time Altitude Azimuth
CUSAT 1 27 Sep 07:39:45 07:46:58 47° 270° (W) 07:53:00 437.405
HORYU 2 27 Sep 07:45:02 07:47:16 14° 295° (WNW) 07:49:31 437.375
DOVE 4 27 Sep 07:46:55 07:51:01 54° 99° (E) 07:55:03 437.250
STRAND 1 27 Sep 07:53:49 07:58:54 83° 257° (WSW) 08:04:02 437.568
NOAA 15 27 Sep 07:55:30 08:00:40 53° 287° (WNW) 08:05:45 137.62
CUTE 1.7 + AOD 2 27 Sep 08:02:31 08:04:32 13° 92° (E) 08:06:33 437.475
CANX-2 27 Sep 08:03:02 08:05:41 16° 93° (E) 08:08:17 2200.000
RS-15 27 Sep 08:03:14 08:12:59 29° 258° (WSW) 08:22:33 29.354- 29.394
Cubesat XI-IV 27 Sep 08:08:23 08:13:32 50° 288° (WNW) 08:18:41 437.490
CUTE-I 27 Sep 08:08:50 08:13:59 49° 288° (WNW) 08:19:07 437.470
O/OREOS (USA 219) 27 Sep 08:32:00 08:36:13 38° 295° (WNW) 08:40:31 437.305
GONETS M04 27 Sep 08:34:07 08:42:04 39° 87° (E) 08:50:02
NOAA 18 27 Sep 08:42:48 08:47:35 32° 292° (WNW) 08:52:22 137.9125
CUBEBUG 2 27 Sep 08:43:13 08:45:29 14° 93° (E) 08:47:46 437.445
HO-68 27 Sep 08:56:43 09:03:46 59° 102° (ESE) 09:10:47 435.675
Cosmos 2499 27 Sep 08:57:10 09:03:52 43° 90° (E) 09:10:25 435.465 / 435.565
PRISM 27 Sep 09:01:16 09:05:14 44° 73° (ENE) 09:09:13 437.425
DANDE 27 Sep 09:01:24 09:08:18 30° 275° (W) 09:14:46 436.750
UWE-3 27 Sep 09:02:53 09:05:28 15° 94° (E) 09:08:05 435.000/436.395/437.385
CINEMA 3 27 Sep 09:05:03 09:09:13 75° 285° (WNW) 09:13:29 145.822/145.860
COMPASS 1 27 Sep 09:12:33 09:16:32 40° 98° (E) 09:20:30 437.405
DOVE 4 27 Sep 09:27:33 09:28:12 10° 295° (WNW) 09:28:51 437.250
Oscar 11 27 Sep 09:33:21 09:36:37 20° 95° (E) 09:39:52 145.826/435.025
ZACube-1 27 Sep 09:33:31 09:36:53 22° 95° (E) 09:40:18 437.345
CUTE 1.7 + AOD 2 27 Sep 09:36:28 09:40:34 44° 286° (WNW) 09:44:38 437.475
CANX-2 27 Sep 09:37:40 09:41:37 37° 287° (WNW) 09:45:34 2200.000
SEEDS 27 Sep 09:39:21 09:43:34 60° 285° (WNW) 09:47:45 437.485
BEESAT 3 27 Sep 09:42:14 09:44:22 14° 48° (NE) 09:46:29 437.485
ANTELSAT 27 Sep 09:49:12 09:52:02 18° 68° (ENE) 09:54:52 437.575/2403.000
DELFI C3 27 Sep 09:57:52 09:59:54 13° 93° (E) 10:01:54 145.870
AAUSAT CUBESAT 2 27 Sep 10:04:22 10:08:30 58° 285° (WNW) 10:12:36 437.432
TIGRISAT 27 Sep 10:09:03 10:12:41 28° 71° (ENE) 10:16:17 435.000
CUBEBUG 2 27 Sep 10:18:11 10:22:14 42° 286° (WNW) 10:26:24 437.445
FUNcube-1 27 Sep 10:27:16 10:31:37 88° 111° (ESE) 10:36:03 145.935
GONETS M04 27 Sep 10:30:34 10:38:44 41° 284° (WNW) 10:46:58
BEESAT 2 27 Sep 10:35:12 10:38:31 24° 53° (NE) 10:41:49 435.950
UWE-3 27 Sep 10:38:01 10:42:02 39° 287° (WNW) 10:46:08 435.000/436.395/437.385
PRISM 27 Sep 10:39:01 10:40:44 12° 267° (W) 10:42:27 437.425
HO-68 27 Sep 10:45:29 10:50:56 24° 299° (WNW) 10:56:24 435.675
UNISAT 6 27 Sep 10:48:40 10:52:58 89° 309° (NW) 10:57:13 437.425
COMPASS 1 27 Sep 10:49:24 10:51:42 15° 293° (WNW) 10:54:00 437.405
Cosmos 2499 27 Sep 10:51:04 10:57:03 28° 286° (WNW) 11:02:58 435.465 / 435.565
POPSAT HIP 1 27 Sep 10:52:51 10:53:43 11° 65° (ENE) 10:54:37 437.405
NANOSAT C BR1 27 Sep 11:07:55 11:10:25 16° 68° (ENE) 11:12:57 145.865
Oscar 11 27 Sep 11:08:57 11:12:43 29° 289° (WNW) 11:16:29 145.826/435.025
ZACube-1 27 Sep 11:09:25 11:13:07 28° 289° (WNW) 11:16:52 437.345
BEESAT 3 27 Sep 11:18:26 11:22:17 49° 245° (WSW) 11:26:06 437.485
PHONESAT 2.4 27 Sep 11:20:00 11:22:53 56° 155° (SSE) 11:25:46 2401.200-2431.200
ANTELSAT 27 Sep 11:24:37 11:28:29 33° 262° (W) 11:32:21 437.575/2403.000
QB50P2 27 Sep 11:29:15 11:32:58 32° 72° (ENE) 11:36:43 145.880/145.840
DELFI C3 27 Sep 11:31:08 11:34:51 37° 287° (WNW) 11:38:31 145.870
POLYITAN 1 27 Sep 11:31:29 11:35:12 32° 72° (ENE) 11:38:56 437.675
HUMSAT D 27 Sep 11:35:47 11:40:02 76° 282° (WNW) 11:44:18 437.325/437.525
TIGRISAT 27 Sep 11:46:09 11:49:21 20° 265° (W) 11:52:31 435.000
JAS-2 27 Sep 11:53:07 11:59:09 48° 69° (ENE) 12:05:56 435.910
ESTCUBE 1 27 Sep 12:04:47 12:08:47 30° 97° (E) 12:12:45 437.505/2401.250
VELOX 1 27 Sep 12:08:19 12:10:47 15° 93° (E) 12:13:14 145.980
DUCHIFAT 1 27 Sep 12:09:57 12:14:08 82° 77° (ENE) 12:18:19 145.980
QB50P1 27 Sep 12:11:17 12:15:29 83° 256° (WSW) 12:19:42 145.935-145.965
BEESAT 2 27 Sep 12:12:57 12:16:14 25° 248° (WSW) 12:19:31 435.950
CUBEBUG 1 27 Sep 12:13:31 12:16:56 23° 96° (E) 12:20:20 437.445
BUGSAT 1 27 Sep 12:15:39 12:19:23 34° 72° (ENE) 12:23:07 437.445
POPSAT HIP 1 27 Sep 12:24:51 12:28:58 57° 259° (W) 12:33:07 437.405
NANOSAT C BR1 27 Sep 12:41:57 12:45:50 36° 262° (W) 12:49:43 145.865
AIST 2 27 Sep 12:51:33 12:55:03 25° 53° (NE) 12:58:32 435.215
PHONESAT 2.4 27 Sep 12:56:19 12:59:05 37° 350° (N) 13:01:52 2401.200-2431.200
SPROUT 27 Sep 12:57:13 13:00:56 29° 97° (E) 13:04:38 437.525
AISAT 27 Sep 12:59:22 13:03:44 63° 102° (ESE) 13:08:04 437.250
M-CUBED/EXP-1 PRIME 27 Sep 13:00:28 13:03:16 26° 103° (ESE) 13:06:05 437.505
QB50P2 27 Sep 13:05:59 13:08:49 17° 266° (W) 13:11:39 145.880/145.840
POLYITAN 1 27 Sep 13:08:14 13:11:02 17° 266° (W) 13:13:51 437.675
UKube-1 27 Sep 13:09:53 13:13:50 35° 98° (E) 13:17:46 .
50 SAT 27 Sep 13:12:02 13:15:42 87° 284° (WNW) 13:19:20 437.505
Oscar 19 27 Sep 13:21:06 13:25:53 39° 71° (ENE) 13:30:41 437.125/150
PCSat 27 Sep 13:22:47 13:26:37 19° 51° (NE) 13:30:25 145.827
DX 1 27 Sep 13:37:01 13:41:22 81° 285° (WNW) 13:45:41 434.975-435.025
JAS-2 27 Sep 13:39:18 13:44:27 26° 268° (W) 13:50:09 435.910
ESTCUBE 1 27 Sep 13:41:55 13:45:23 22° 292° (WNW) 13:48:50 437.505/2401.250
VELOX 1 27 Sep 13:43:15 13:47:23 41° 288° (WNW) 13:51:30 145.980
CUBEBUG 1 27 Sep 13:49:32 13:53:09 26° 290° (WNW) 13:56:43 437.445
BUGSAT 1 27 Sep 13:52:25 13:54:50 15° 266° (W) 13:57:15 437.445
AUBIESAT-1 27 Sep 13:57:40 14:00:53 50° 290° (WNW) 14:04:07 437.475
AO-7 27 Sep 14:12:24 14:17:22 18° 54° (NE) 14:22:18 29.400- 29.500
Gurwin Techsat 1B 27 Sep 14:13:40 14:18:52 59° 73° (ENE) 14:24:06 435.225
ITAMSAT 1 27 Sep 14:14:58 14:18:00 16° 64° (ENE) 14:21:02 435.822/435.867
Cosmos 2491 27 Sep 14:18:30 14:25:11 25° 82° (E) 14:31:54 435.465 / 435.565
TISAT 1 27 Sep 14:19:28 14:23:31 48° 100° (E) 14:27:32 437.305
YUBILEINY 27 Sep 14:25:09 14:33:34 50° 78° (ENE) 14:41:53 435.215
AIST 2 27 Sep 14:29:56 14:33:26 26° 248° (WSW) 14:36:57 435.215
PHONESAT 2.4 27 Sep 14:32:51 14:35:35 33° 7° (N) 14:38:18 2401.200-2431.200
SPROUT 27 Sep 14:33:34 14:36:39 20° 291° (WNW) 14:39:44 437.525
SWISSCUBE 27 Sep 14:35:09 14:37:47 15° 93° (E) 14:40:24 437.505
M-CUBED/EXP-1 PRIME 27 Sep 14:36:08 14:37:34 12° 297° (WNW) 14:39:01 437.505
AISAT 27 Sep 14:38:49 14:39:37 10° 296° (WNW) 14:40:25 437.250
UKube-1 27 Sep 14:46:44 14:49:34 17° 293° (WNW) 14:52:25 .
BEESAT 27 Sep 14:47:39 14:50:54 18° 94° (E) 14:54:08 436.000
Oscar 19 27 Sep 15:01:19 15:05:16 22° 265° (W) 15:09:14 437.125/150
PCSat 27 Sep 15:05:03 15:10:22 58° 248° (WSW) 15:15:39 145.827
SO-50 27 Sep 15:19:52 15:24:28 44° 115° (ESE) 15:29:02 436.795
Cosmos 2504 27 Sep 15:38:08 15:45:28 56° 80° (E) 15:53:17 435.465 / 435.565
ITAMSAT 1 27 Sep 15:51:54 15:56:57 56° 259° (W) 16:02:03 435.822/435.867
Gurwin Techsat 1B 27 Sep 15:56:19 15:59:09 14° 268° (W) 16:01:59 435.225
TISAT 1 27 Sep 15:57:03 15:58:42 12° 294° (WNW) 16:00:20 437.305
ITUPSAT 1 27 Sep 15:57:37 16:02:26 80° 285° (WNW) 16:07:14 437.325
AO-7 27 Sep 16:00:36 16:08:56 86° 72° (ENE) 16:17:18 29.400- 29.500
PHONESAT 2.4 27 Sep 16:08:54 16:11:52 82° 205° (SSW) 16:14:50 2401.200-2431.200
SWISSCUBE 27 Sep 16:11:09 16:15:48 50° 287° (WNW) 16:20:25 437.505
Cosmos 2491 27 Sep 16:12:38 16:21:16 61° 280° (W) 16:30:01 435.465 / 435.565
MOZHAYETS 4 27 Sep 16:17:55 16:21:54 28° 96° (E) 16:25:51
YUBILEINY 27 Sep 16:22:38 16:29:52 31° 276° (W) 16:37:07 435.215
BEESAT 27 Sep 16:24:20 16:28:48 40° 288° (WNW) 16:33:16 436.000
KKS-1 27 Sep 16:46:41 16:50:43 34° 98° (E) 16:54:43 437.445
AIST 1 27 Sep 16:53:18 16:57:30 52° 81° (E) 17:01:38
BRITE-PL 27 Sep 16:56:33 17:00:33 20° 67° (ENE) 17:04:31 437.365/2234.400
SO-50 27 Sep 17:01:27 17:05:07 21° 310° (NW) 17:08:47 436.795
HORYU 2 27 Sep 17:02:12 17:06:05 31° 71° (ENE) 17:10:00 437.375
O/OREOS (USA 219) 27 Sep 17:06:00 17:09:35 22° 61° (ENE) 17:13:08 437.305
STARS 27 Sep 17:21:32 17:25:37 39° 99° (E) 17:29:42 437.465
Cosmos 2504 27 Sep 17:32:39 17:38:19 24° 275° (W) 17:44:15 435.465 / 435.565
NOAA 15 27 Sep 17:34:31 17:38:23 21° 66° (ENE) 17:42:16 137.62
CUBESAT XI-V 27 Sep 17:36:33 17:40:22 24° 95° (E) 17:44:09 437.345
PHONESAT 2.4 27 Sep 17:46:14 17:47:39 13° 216° (SW) 17:49:03 2401.200-2431.200
Cubesat XI-IV 27 Sep 17:48:55 17:52:58 23° 66° (ENE) 17:57:02 437.490
CUTE-I 27 Sep 17:49:10 17:53:15 23° 66° (ENE) 17:57:21 437.470
MOZHAYETS 4 27 Sep 17:55:09 17:58:54 25° 291° (WNW) 18:02:40
AO-7 27 Sep 17:57:36 18:02:29 17° 267° (W) 18:07:25 29.400- 29.500
LilacSat-2 27 Sep 18:06:07 18:09:11 24° 72° (ENE) 18:12:17 437.200
KKS-1 27 Sep 18:23:55 18:27:00 19° 293° (WNW) 18:30:05 437.445
GOMX 1 27 Sep 18:24:41 18:30:02 59° 75° (ENE) 18:35:10 467.674
NOAA 18 27 Sep 18:25:38 18:30:45 43° 71° (ENE) 18:35:53 137.9125
BRITE-PL 27 Sep 18:33:01 18:38:33 53° 261° (W) 18:44:04 437.365/2234.400
HORYU 2 27 Sep 18:39:29 18:42:39 19° 265° (W) 18:45:51 437.375
O/OREOS (USA 219) 27 Sep 18:44:56 18:49:00 31° 257° (WSW) 18:53:01 437.305
DOVE 4 27 Sep 18:48:43 18:53:29 43° 74° (ENE) 18:58:02 437.250
GONETS M04 27 Sep 18:49:30 18:54:24 16° 65° (ENE) 18:59:15
Cosmos 2499 27 Sep 18:53:25 18:55:47 11° 66° (ENE) 18:58:11 435.465 / 435.565
CUSAT 1 27 Sep 18:55:13 19:00:23 31° 85° (E) 19:06:32 437.405
STARS 27 Sep 18:58:56 19:01:38 16° 293° (WNW) 19:04:19 437.465
NOAA 15 27 Sep 19:12:46 19:17:48 44° 261° (W) 19:22:52 137.62
CUBESAT XI-V 27 Sep 19:13:41 19:17:41 28° 290° (WNW) 19:21:39 437.345
HO-68 27 Sep 19:22:37 19:28:51 33° 65° (ENE) 19:35:03 435.675
Cubesat XI-IV 27 Sep 19:27:48 19:32:44 40° 261° (W) 19:37:43 437.490
CUTE-I 27 Sep 19:28:06 19:33:01 39° 261° (W) 19:37:59 437.470
LilacSat-2 27 Sep 19:40:52 19:43:26 18° 265° (W) 19:46:02 437.200
ISS 27 Sep 19:56:48 19:59:34 26° 131° (SE) 20:02:21 145.825
COMPASS 1 27 Sep 20:01:07 20:04:06 19° 69° (ENE) 20:07:06 437.405
CINEMA 3 27 Sep 20:03:26 20:07:57 68° 77° (ENE) 20:12:17 145.822/145.860
GOMX 1 27 Sep 20:05:17 20:08:19 15° 268° (W) 20:11:20 467.674
STRAND 1 27 Sep 20:07:21 20:12:13 42° 99° (E) 20:17:05 437.568
NOAA 18 27 Sep 20:07:26 20:11:32 21° 265° (W) 20:15:39 137.9125
RS-15 27 Sep 20:07:51 20:19:04 63° 112° (ESE) 20:30:53 29.354- 29.394
DANDE 27 Sep 20:22:32 20:27:14 60° 93° (E) 20:33:33 436.750
CUTE 1.7 + AOD 2 27 Sep 20:25:38 20:29:51 86° 77° (ENE) 20:34:07 437.475
CANX-2 27 Sep 20:26:50 20:31:02 78° 257° (WSW) 20:35:19 2200.000
Oscar 11 27 Sep 20:27:10 20:28:38 12° 65° (ENE) 20:30:06 145.826/435.025
SEEDS 27 Sep 20:27:44 20:31:52 61° 75° (ENE) 20:36:03 437.485
DOVE 4 27 Sep 20:27:50 20:31:15 18° 266° (W) 20:34:35 437.250
ZACube-1 27 Sep 20:28:38 20:30:03 12° 66° (ENE) 20:31:27 437.345
CUSAT 1 27 Sep 20:36:24 20:42:03 41° 287° (WNW) 20:48:58 437.405
Cosmos 2499 27 Sep 20:42:18 20:49:57 77° 83° (E) 20:58:12 435.465 / 435.565
GONETS M04 27 Sep 20:43:36 20:52:28 88° 87° (E) 21:01:12
AAUSAT CUBESAT 2 27 Sep 20:51:13 20:55:17 59° 76° (ENE) 20:59:25 437.432
AO-85 27 Sep 21:00:19 21:05:17 42° 114° (ESE) 21:10:00 145.980
HO-68 27 Sep 21:09:36 21:16:19 43° 261° (W) 21:23:04 435.675
CUBEBUG 2 27 Sep 21:13:07 21:17:20 75° 258° (WSW) 21:21:30 437.445
FUNcube-1 27 Sep 21:20:01 21:23:57 44° 74° (ENE) 21:27:53 145.935
UWE-3 27 Sep 21:31:48 21:35:58 70° 259° (W) 21:40:06 435.000/436.395/437.385
ISS 27 Sep 21:33:12 21:36:00 26° 326° (NNW) 21:38:49 145.825
COMPASS 1 27 Sep 21:35:49 21:39:26 29° 263° (W) 21:43:05 437.405
JUGNU 27 Sep 21:41:54 21:45:17 16° 175° (S) 21:48:40 437.505
STRAND 1 27 Sep 21:47:20 21:51:04 21° 294° (WNW) 21:54:47 437.568
Oscar 11 27 Sep 22:00:02 22:04:15 54° 260° (W) 22:08:29 145.826/435.025
ZACube-1 27 Sep 22:01:52 22:05:52 49° 260° (W) 22:09:54 437.345
DANDE 27 Sep 22:07:42 22:10:56 16° 298° (WNW) 22:14:42 436.750
DELFI C3 27 Sep 22:13:18 22:17:17 80° 77° (ENE) 22:21:18 145.870
PRISM 27 Sep 22:20:31 22:24:38 72° 285° (WNW) 22:28:43 437.425
RS-15 27 Sep 22:21:28 22:32:10 39° 315° (NW) 22:43:25 29.354- 29.394
HUMSAT D 27 Sep 22:24:02 22:27:57 48° 74° (ENE) 22:31:54 437.325/437.525
Cosmos 2499 27 Sep 22:37:40 22:42:14 17° 278° (W) 22:47:01 435.465 / 435.565
SRMSAT 27 Sep 22:39:51 22:41:21 11° 167° (SSE) 22:42:51 437.500
AO-85 27 Sep 22:41:41 22:45:51 24° 308° (NW) 22:49:51 145.980
GONETS M04 27 Sep 22:43:19 22:47:57 16° 282° (WNW) 22:52:36
UNISAT 6 27 Sep 22:43:27 22:46:59 23° 96° (E) 22:50:35 437.425
FUNcube-1 27 Sep 22:58:55 23:00:24 12° 268° (W) 23:01:54 145.935
ESTCUBE 1 27 Sep 23:01:59 23:05:20 21° 68° (ENE) 23:08:41 437.505/2401.250
CUBEBUG 1 27 Sep 23:07:42 23:10:06 15° 66° (ENE) 23:12:29 437.445
ANTELSAT 27 Sep 23:18:10 23:22:33 58° 101° (E) 23:27:00 437.575/2403.000
JUGNU 27 Sep 23:30:08 23:33:31 16° 185° (S) 23:36:55 437.505
TIGRISAT 27 Sep 23:38:43 23:43:08 85° 285° (WNW) 23:47:40 435.000
M-CUBED/EXP-1 PRIME 27 Sep 23:43:47 23:47:19 27° 67° (ENE) 23:50:38 437.505
50 SAT 27 Sep 23:46:13 23:49:10 24° 71° (ENE) 23:52:10 437.505
SPROUT 27 Sep 23:48:52 23:51:32 16° 68° (ENE) 23:54:12 437.525
AISAT 27 Sep 23:53:44 23:57:52 39° 72° (ENE) 00:02:01 437.250
SO-50 27 Sep 23:54:47 23:58:04 19° 49° (NE) 00:01:17 436.795
DUCHIFAT 1 27 Sep 23:58:06 00:00:39 16° 94° (E) 00:03:10 145.980
QB50P1 27 Sep 23:59:41 00:02:42 19° 95° (E) 00:05:44 145.935-145.965
UKube-1 28 Sep 00:02:04 00:05:20 21° 68° (ENE) 00:08:37 .
HUMSAT D 28 Sep 00:02:56 00:03:49 11° 269° (W) 00:04:42 437.325/437.525
POPSAT HIP 1 28 Sep 00:12:43 00:16:18 27° 97° (E) 00:19:52 437.405
UNISAT 6 28 Sep 00:19:54 00:23:38 27° 289° (WNW) 00:27:25 437.425
SRMSAT 28 Sep 00:26:13 00:29:43 16° 177° (S) 00:33:13 437.500
NANOSAT C BR1 28 Sep 00:28:49 00:32:47 40° 99° (E) 00:36:44 145.865
DX 1 28 Sep 00:29:19 00:33:36 59° 75° (ENE) 00:37:55 434.975-435.025
VELOX 1 28 Sep 00:37:01 00:41:27 69° 258° (WSW) 00:45:54 145.980
ESTCUBE 1 28 Sep 00:37:51 00:41:53 32° 263° (W) 00:45:59 437.505/2401.250
AUBIESAT-1 28 Sep 00:40:11 00:44:20 75° 253° (WSW) 00:48:12 437.475
CUBEBUG 1 28 Sep 00:41:43 00:45:57 45° 261° (W) 00:50:12 437.445
RS-15 28 Sep 00:43:00 00:49:45 16° 348° (NNW) 00:56:34 29.354- 29.394
JAS-2 28 Sep 00:49:59 00:57:45 59° 100° (E) 01:05:02 435.910
QB50P2 28 Sep 00:51:58 00:56:12 89° 292° (WNW) 01:00:26 145.880/145.840
POLYITAN 1 28 Sep 00:54:10 00:58:25 89° 272° (W) 01:02:38 437.675
ANTELSAT 28 Sep 00:57:12 00:58:46 12° 295° (WNW) 01:00:20 437.575/2403.000
BEESAT 3 28 Sep 01:05:48 01:09:34 52° 116° (ESE) 01:13:23 437.485
TISAT 1 28 Sep 01:08:37 01:12:02 25° 70° (ENE) 01:15:27 437.305
M-CUBED/EXP-1 PRIME 28 Sep 01:18:33 01:21:45 21° 258° (WSW) 01:24:47 437.505
50 SAT 28 Sep 01:20:15 01:22:38 17° 265° (W) 01:25:02 437.505
SPROUT 28 Sep 01:23:13 01:27:08 36° 262° (W) 01:31:06 437.525
AISAT 28 Sep 01:31:41 01:34:27 16° 266° (W) 01:37:13 437.250
DUCHIFAT 1 28 Sep 01:32:36 01:36:25 35° 288° (WNW) 01:40:14 145.980
SO-50 28 Sep 01:34:26 01:38:44 43° 245° (WSW) 01:42:55 436.795
QB50P1 28 Sep 01:34:49 01:38:28 29° 289° (WNW) 01:42:06 145.935-145.965
BUGSAT 1 28 Sep 01:34:55 01:38:58 88° 277° (W) 01:42:59 437.445
Oscar 19 28 Sep 01:36:37 01:39:53 17° 93° (E) 01:43:06 437.125/150
UKube-1 28 Sep 01:37:27 01:41:11 28° 263° (W) 01:44:56 .
SWISSCUBE 28 Sep 01:39:46 01:41:53 13° 64° (ENE) 01:44:01 437.505
POPSAT HIP 1 28 Sep 01:48:43 01:51:54 21° 291° (WNW) 01:55:04 437.405
BEESAT 28 Sep 01:51:58 01:54:47 16° 65° (ENE) 01:57:36 436.000
BEESAT 2 28 Sep 02:01:05 02:05:00 72° 300° (WNW) 02:08:58 435.950
NANOSAT C BR1 28 Sep 02:05:49 02:08:08 15° 293° (WNW) 02:10:27 145.865
DX 1 28 Sep 02:09:48 02:10:07 10° 268° (W) 02:10:25 434.975-435.025
SRMSAT 28 Sep 02:14:54 02:18:07 15° 187° (S) 02:21:20 437.500
Cosmos 2491 28 Sep 02:26:31 02:35:15 60° 80° (E) 02:43:53 435.465 / 435.565
ISS 28 Sep 02:27:21 02:29:13 14° 27° (NNE) 02:31:05 145.825
Gurwin Techsat 1B 28 Sep 02:33:12 02:37:48 29° 97° (E) 02:42:23 435.225
JAS-2 28 Sep 02:35:48 02:42:08 28° 297° (WNW) 02:48:15 435.910
TISAT 1 28 Sep 02:44:17 02:47:35 22° 264° (W) 02:50:53 437.305
BEESAT 3 28 Sep 02:45:41 02:47:31 13° 312° (NW) 02:49:22 437.485
RS-15 28 Sep 03:00:55 03:09:26 20° 25° (NNE) 03:17:54 29.354- 29.394
ITUPSAT 1 28 Sep 03:01:15 03:06:00 85° 76° (ENE) 03:10:48 437.325
SWISSCUBE 28 Sep 03:14:26 03:19:07 60° 259° (W) 03:23:50 437.505
Oscar 19 28 Sep 03:14:28 03:19:25 49° 288° (WNW) 03:24:20 437.125/150
MOZHAYETS 4 28 Sep 03:17:37 03:20:50 19° 68° (ENE) 03:24:05
YUBILEINY 28 Sep 03:21:53 03:30:31 64° 92° (E) 03:39:08 435.215
BEESAT 28 Sep 03:27:33 03:32:07 48° 260° (W) 03:36:44 436.000
KKS-1 28 Sep 03:42:19 03:45:48 23° 69° (ENE) 03:49:17 437.445
PCSat 28 Sep 04:01:17 04:05:47 28° 107° (ESE) 04:10:19 145.827
ISS 28 Sep 04:02:45 04:06:03 77° 222° (SW) 04:09:20 145.825
AO-7 28 Sep 04:06:03 04:13:23 34° 98° (E) 04:20:41 29.400- 29.500
ITAMSAT 1 28 Sep 04:07:27 04:12:38 65° 102° (ESE) 04:17:50 435.822/435.867
Gurwin Techsat 1B 28 Sep 04:13:05 04:17:39 30° 291° (WNW) 04:22:14 435.225
Cosmos 2504 28 Sep 04:13:29 04:20:39 50° 91° (E) 04:27:31 435.465 / 435.565
STARS 28 Sep 04:15:40 04:19:13 25° 69° (ENE) 04:22:47 437.465
AIST 2 28 Sep 04:23:51 04:27:54 63° 301° (WNW) 04:32:00 435.215
Cosmos 2491 28 Sep 04:24:33 04:31:22 26° 277° (W) 04:38:10 435.465 / 435.565
CUBESAT XI-V 28 Sep 04:37:36 04:40:47 18° 67° (ENE) 04:43:57 437.345
MOZHAYETS 4 28 Sep 04:53:34 04:57:43 35° 262° (W) 05:01:56
RS-15 28 Sep 05:13:13 05:25:27 59° 54° (NE) 05:37:19 29.354- 29.394
KKS-1 28 Sep 05:18:22 05:22:11 28° 263° (W) 05:26:01 437.445
AIST 1 28 Sep 05:19:27 05:23:27 35° 91° (E) 05:27:27
YUBILEINY 28 Sep 05:21:02 05:27:52 25° 290° (WNW) 05:34:43 435.215
CUSAT 1 28 Sep 05:33:07 05:38:44 22° 65° (ENE) 05:43:40 437.405
AO-85 28 Sep 05:36:23 05:38:40 14° 47° (NE) 05:40:53 145.980
PCSat 28 Sep 05:44:04 05:49:00 35° 303° (WNW) 05:53:58 145.827
ITAMSAT 1 28 Sep 05:48:50 05:51:31 14° 297° (WNW) 05:54:11 435.822/435.867
STARS 28 Sep 05:51:51 05:55:27 25° 263° (W) 05:59:05 437.465
AO-7 28 Sep 05:58:25 06:06:15 48° 295° (WNW) 06:14:05 29.400- 29.500
Cosmos 2504 28 Sep 06:08:22 06:14:13 25° 287° (WNW) 06:19:57 435.465 / 435.565
CUTE-I 28 Sep 06:11:18 06:12:19 10° 90° (E) 06:13:21 437.470
Cubesat XI-IV 28 Sep 06:11:25 06:12:12 10° 90° (E) 06:12:59 437.490
CUBESAT XI-V 28 Sep 06:13:24 06:17:48 40° 262° (W) 06:22:15 437.345
GOMX 1 28 Sep 06:31:11 06:34:08 18° 93° (E) 06:36:58 467.674
HORYU 2 28 Sep 06:31:34 06:36:03 85° 283° (WNW) 06:40:31 437.375
BRITE-PL 28 Sep 06:41:40 06:46:24 67° 100° (E) 06:50:45 437.365/2234.400
NOAA 18 28 Sep 06:51:05 06:55:19 23° 95° (E) 06:59:33 137.9125
DOVE 4 28 Sep 06:52:55 06:54:12 11° 92° (E) 06:55:29 437.250
AIST 1 28 Sep 06:58:25 07:01:09 16° 286° (WNW) 07:03:52
DANDE 28 Sep 07:03:08 07:11:16 51° 76° (ENE) 07:18:41 436.750
CUSAT 1 28 Sep 07:13:59 07:21:29 64° 267° (W) 07:27:36 437.405
O/OREOS (USA 219) 28 Sep 07:14:43 07:18:58 40° 105° (ESE) 07:23:16 437.305
LilacSat-2 28 Sep 07:15:29 07:19:16 56° 100° (E) 07:23:03 437.200
AO-85 28 Sep 07:15:30 07:19:22 45° 246° (WSW) 07:23:04 145.980
STRAND 1 28 Sep 07:20:22 07:25:11 45° 72° (ENE) 07:30:02 437.568
